Location: Bakhuizen
(52.8696°N, 5.4575°E)
Time: 15:43:44
(UTC+00:00)

Cosmos 1833 - Pass Details

Date: 05 October 2021
Orbit: 835 x 864 km, 70.9° (Epoch: 15 October)

Event Time Altitude Azimuth Distance (km) Brightness Sun altitude
Rises 19:01:22 0° 316° (NW) 3,395 8.4 -18.2°
Reaches altitude 10° 19:05:23 10° 288° (WNW) 2,453 7.9 -18.8°
Maximum altitude 19:07:33 12° 265° (W) 2,286 7.4 -19.1°
Drops below altitude 10° 19:09:43 10° 242° (WSW) 2,447 7.2 -19.4°
Sets 19:13:43 0° 214° (SSW) 3,377 7.5 -20.0°
